When you browse on this site, cookies collect data to enhance your experience and personalize the content and advertising you see.
Visit our Privacy Policy to learn more. By continuing to use the site, you agree to this use of cookies and data.
  • In Spain
  • List of Countries
  • For 7 days
  • Water Temperature
  • Weather Map
  • Weather Widgets
  • user-avatar
    Login

    Hourly Weather Florence

    Today, 4 June, Thursday

    Time Temperature Precipitation Wind Pressure Humidity
    00:00 +17°C° 0 mm 2 mps 750 mmHg 85%
    01:00 +16°C° 0 mm 2 mps 750 mmHg 86%
    02:00 +16°C° 0 mm 2 mps 750 mmHg 88%
    03:00 +16°C° 0 mm 2 mps 750 mmHg 89%
    04:00 +16°C° 0 mm 2 mps 749 mmHg 91%
    05:00 +16°C° 0 mm 2 mps 749 mmHg 89%
    06:00 +17°C° 0 mm 2 mps 749 mmHg 87%
    07:00 +18°C° 0 mm 3 mps 749 mmHg 85%
    08:00 +19°C° 0.2 mm 4 mps 749 mmHg 83%
    09:00 +20°C° 0.2 mm 4 mps 749 mmHg 80%
    10:00 +21°C° 0.2 mm 5 mps 749 mmHg 78%
    11:00 +22°C° 0.6 mm 5 mps 748 mmHg 74%
    12:00 +22°C° 0.6 mm 5 mps 748 mmHg 70%
    13:00 +23°C° 0.6 mm 5 mps 747 mmHg 66%
    14:00 +23°C° 0.2 mm 6 mps 747 mmHg 66%
    15:00 +23°C° 0.2 mm 6 mps 746 mmHg 66%
    16:00 +23°C° 0.2 mm 6 mps 745 mmHg 66%
    17:00 +22°C° 0.5 mm 6 mps 745 mmHg 72%
    18:00 +22°C° 0.5 mm 6 mps 744 mmHg 77%
    19:00 +21°C° 0.5 mm 6 mps 744 mmHg 83%
    20:00 +21°C° 1.8 mm 6 mps 743 mmHg 86%
    21:00 +20°C° 1.8 mm 6 mps 743 mmHg 88%
    22:00 +20°C° 1.8 mm 6 mps 743 mmHg 91%
    23:00 +19°C° 1.7 mm 6 mps 743 mmHg 91%

    Tomorrow, 5 June, Friday

    Time Temperature Precipitation Wind Pressure Humidity
    00:00 +19°C° 1.7 mm 5 mps 743 mmHg 91%
    01:00 +17°C° 1.7 mm 5 mps 743 mmHg 91%
    02:00 +18°C° 1.2 mm 4 mps 743 mmHg 91%
    03:00 +17°C° 1.2 mm 3 mps 742 mmHg 92%
    04:00 +17°C° 1.2 mm 2 mps 742 mmHg 92%
    05:00 +17°C° 0.6 mm 3 mps 742 mmHg 91%
    06:00 +18°C° 0.6 mm 4 mps 742 mmHg 89%
    07:00 +18°C° 0.6 mm 4 mps 742 mmHg 88%
    08:00 +19°C° 0.5 mm 5 mps 743 mmHg 83%
    09:00 +20°C° 0.5 mm 5 mps 743 mmHg 79%
    10:00 +21°C° 0.5 mm 5 mps 743 mmHg 74%
    11:00 +21°C° 0.6 mm 5 mps 743 mmHg 70%
    12:00 +22°C° 0.6 mm 4 mps 744 mmHg 67%
    13:00 +23°C° 0.6 mm 4 mps 744 mmHg 63%
    14:00 +23°C° 0.2 mm 4 mps 744 mmHg 62%
    15:00 +23°C° 0.2 mm 4 mps 744 mmHg 61%
    16:00 +23°C° 0.2 mm 5 mps 745 mmHg 60%
    17:00 +22°C° 0 mm 4 mps 745 mmHg 66%
    18:00 +21°C° 0 mm 3 mps 745 mmHg 72%
    19:00 +20°C° 0 mm 3 mps 746 mmHg 78%
    20:00 +19°C° 0 mm 2 mps 746 mmHg 82%
    21:00 +19°C° 0 mm 1 mps 747 mmHg 85%
    22:00 +18°C° 0 mm 1 mps 748 mmHg 88%
    23:00 +18°C° 0 mm 1 mps 748 mmHg 89%

    Day after tomorrow, 6 June, Saturday

    Time Temperature Precipitation Wind Pressure Humidity
    00:00 +18°C° 0 mm 1 mps 749 mmHg 89%
    01:00 +16°C° 0 mm 1 mps 749 mmHg 90%
    02:00 +16°C° 0 mm 1 mps 749 mmHg 90%
    03:00 +16°C° 0 mm 1 mps 749 mmHg 89%
    04:00 +15°C° 0 mm 1 mps 749 mmHg 89%
    05:00 +16°C° 0 mm 1 mps 750 mmHg 85%
    06:00 +19°C° 0 mm 1 mps 750 mmHg 81%
    07:00 +20°C° 0 mm 1 mps 751 mmHg 78%
    08:00 +20°C° 0 mm 2 mps 751 mmHg 73%
    09:00 +21°C° 0 mm 2 mps 751 mmHg 68%
    10:00 +23°C° 0 mm 2 mps 752 mmHg 63%
    11:00 +22°C° 0.1 mm 3 mps 752 mmHg 62%
    12:00 +22°C° 0.1 mm 3 mps 752 mmHg 62%
    13:00 +24°C° 0.1 mm 3 mps 752 mmHg 61%
    14:00 +23°C° 0.1 mm 4 mps 751 mmHg 62%
    15:00 +23°C° 0.1 mm 5 mps 751 mmHg 62%
    16:00 +23°C° 0.1 mm 6 mps 751 mmHg 62%
    17:00 +22°C° 0.1 mm 5 mps 751 mmHg 68%
    18:00 +21°C° 0.1 mm 5 mps 751 mmHg 75%
    19:00 +20°C° 0.1 mm 4 mps 751 mmHg 81%
    20:00 +19°C° 0 mm 4 mps 751 mmHg 84%
    21:00 +18°C° 0 mm 3 mps 752 mmHg 87%
    22:00 +18°C° 0 mm 2 mps 752 mmHg 89%
    23:00 +18°C° 0 mm 2 mps 752 mmHg 90%

    7 June, Sunday

    Time Temperature Precipitation Wind Pressure Humidity
    00:00 +17°C° 0 mm 2 mps 752 mmHg 91%
    01:00 +18°C° 0 mm 1 mps 752 mmHg 91%
    02:00 +18°C° 0 mm 1 mps 752 mmHg 91%
    03:00 +18°C° 0 mm 1 mps 752 mmHg 91%
    04:00 +16°C° 0 mm 2 mps 752 mmHg 91%
    05:00 +18°C° 0 mm 1 mps 752 mmHg 88%
    06:00 +19°C° 0 mm 1 mps 752 mmHg 86%
    07:00 +20°C° 0 mm 1 mps 752 mmHg 84%
    08:00 +20°C° 0 mm 2 mps 752 mmHg 77%
    09:00 +22°C° 0 mm 3 mps 753 mmHg 70%
    10:00 +25°C° 0 mm 3 mps 753 mmHg 64%
    11:00 +25°C° 0.7 mm 3 mps 752 mmHg 68%
    12:00 +23°C° 0.7 mm 4 mps 752 mmHg 72%
    13:00 +23°C° 0.7 mm 4 mps 752 mmHg 77%
    14:00 +25°C° 1.2 mm 4 mps 752 mmHg 76%
    15:00 +25°C° 1.2 mm 4 mps 751 mmHg 76%
    16:00 +25°C° 1.2 mm 4 mps 751 mmHg 76%
    17:00 +23°C° 0.8 mm 4 mps 751 mmHg 79%
    18:00 +22°C° 0.8 mm 3 mps 751 mmHg 82%
    19:00 +21°C° 0.8 mm 3 mps 751 mmHg 84%
    20:00 +20°C° 0 mm 2 mps 751 mmHg 86%
    21:00 +19°C° 0 mm 2 mps 751 mmHg 88%
    22:00 +19°C° 0 mm 1 mps 751 mmHg 90%
    23:00 +19°C° 0 mm 1 mps 751 mmHg 90%

    8 June, Monday

    Time Temperature Precipitation Wind Pressure Humidity
    00:00 +19°C° 0 mm 1 mps 751 mmHg 91%
    01:00 +19°C° 0 mm 1 mps 751 mmHg 92%
    02:00 +19°C° 0.3 mm 1 mps 751 mmHg 93%
    03:00 +19°C° 0.3 mm 1 mps 750 mmHg 94%
    04:00 +19°C° 0.3 mm 1 mps 750 mmHg 94%
    05:00 +20°C° 0.3 mm 1 mps 750 mmHg 93%
    06:00 +19°C° 0.3 mm 2 mps 751 mmHg 91%
    07:00 +20°C° 0.3 mm 2 mps 751 mmHg 89%
    08:00 +21°C° 0.3 mm 2 mps 751 mmHg 80%
    09:00 +24°C° 0.3 mm 3 mps 751 mmHg 72%
    10:00 +25°C° 0.3 mm 3 mps 751 mmHg 63%
    11:00 +25°C° 0.1 mm 3 mps 751 mmHg 58%
    12:00 +26°C° 0.1 mm 4 mps 751 mmHg 53%
    13:00 +27°C° 0.1 mm 4 mps 751 mmHg 47%
    14:00 +26°C° 0.2 mm 5 mps 751 mmHg 50%
    15:00 +26°C° 0.2 mm 5 mps 751 mmHg 53%
    16:00 +25°C° 0.2 mm 5 mps 751 mmHg 56%
    17:00 +23°C° 0.1 mm 4 mps 751 mmHg 59%
    18:00 +21°C° 0.1 mm 3 mps 751 mmHg 62%
    19:00 +20°C° 0.1 mm 2 mps 751 mmHg 64%
    20:00 +19°C° 0 mm 2 mps 752 mmHg 66%
    21:00 +19°C° 0 mm 1 mps 752 mmHg 67%
    22:00 +18°C° 0 mm 1 mps 752 mmHg 68%
    23:00 +18°C° 0 mm 1 mps 752 mmHg 70%

    9 June, Tuesday

    Time Temperature Precipitation Wind Pressure Humidity
    00:00 +18°C° 0 mm 1 mps 753 mmHg 72%
    01:00 +18°C° 0 mm 1 mps 753 mmHg 74%
    02:00 +16°C° 0 mm 1 mps 753 mmHg 77%
    03:00 +15°C° 0 mm 0 mps 753 mmHg 80%
    04:00 +14°C° 0 mm 0 mps 752 mmHg 83%
    05:00 +16°C° 0 mm 0 mps 753 mmHg 80%
    06:00 +17°C° 0 mm 0 mps 753 mmHg 76%
    07:00 +18°C° 0 mm 0 mps 753 mmHg 72%
    08:00 +22°C° 0 mm 1 mps 754 mmHg 66%
    09:00 +23°C° 0 mm 1 mps 754 mmHg 60%
    10:00 +25°C° 0 mm 2 mps 754 mmHg 54%
    11:00 +25°C° 0.3 mm 2 mps 754 mmHg 55%
    12:00 +25°C° 0.3 mm 2 mps 754 mmHg 56%
    13:00 +25°C° 0.3 mm 3 mps 754 mmHg 56%
    14:00 +25°C° 0.5 mm 3 mps 754 mmHg 59%
    15:00 +25°C° 0.5 mm 2 mps 754 mmHg 62%
    16:00 +25°C° 0.5 mm 2 mps 754 mmHg 64%
    17:00 +24°C° 0.2 mm 2 mps 754 mmHg 68%
    18:00 +23°C° 0.2 mm 2 mps 754 mmHg 71%
    19:00 +21°C° 0.2 mm 2 mps 754 mmHg 75%
    20:00 +21°C° 0 mm 1 mps 755 mmHg 79%
    21:00 +19°C° 0 mm 1 mps 755 mmHg 82%
    22:00 +18°C° 0 mm 1 mps 755 mmHg 86%
    23:00 +18°C° 0.1 mm 1 mps 755 mmHg 87%
    Show more